2023/06/07 00:00:00, 1.0,11.8
2023/06/07 00:10:00, 1.1,11.6
2023/06/07 00:20:00, 1.3,11.5
2023/06/07 00:30:00, 1.3,11.8
2023/06/07 00:40:00, 1.3,11.2
2023/06/07 00:50:00, 1.5,11.4
2023/06/07 01:00:00, 1.5,11.4
2023/06/07 01:10:00, 1.6,11.3
2023/06/07 01:20:00, 1.8,11.0
2023/06/07 01:30:00, 1.8,10.8
2023/06/07 01:40:00, 1.8,11.1
2023/06/07 01:50:00,---,11.1
2023/06/07 02:00:00, 0.0,10.9
2023/06/07 02:10:00, 0.0,11.0
2023/06/07 02:20:00,---,11.0
2023/06/07 02:30:00,---,11.1
2023/06/07 02:40:00, 0.0,10.9
2023/06/07 02:50:00, 1.9,11.1
2023/06/07 03:00:00,---,10.7
2023/06/07 03:10:00, 0.0,10.6
2023/06/07 03:20:00, 0.0,10.9
2023/06/07 03:30:00, 0.0,10.6
2023/06/07 03:40:00, 0.0,11.1
2023/06/07 03:50:00, 0.0,10.8
2023/06/07 04:00:00, 0.0,11.0
2023/06/07 04:10:00, 0.0,10.9
2023/06/07 04:20:00, 0.0,11.0
2023/06/07 04:30:00, 0.0,11.3
2023/06/07 04:40:00, 0.0,11.4
2023/06/07 04:50:00, 0.0,11.2
2023/06/07 05:00:00, 0.0,11.4
2023/06/07 05:10:00, 0.0,11.3
2023/06/07 05:20:00, 0.0,11.5
2023/06/07 05:30:00, 0.0,11.6
2023/06/07 05:40:00, 0.0,11.7
2023/06/07 05:50:00, 0.0,12.0
2023/06/07 06:00:00, 0.0,12.4
2023/06/07 06:10:00, 0.0,12.4
2023/06/07 06:20:00, 0.0,13.2
2023/06/07 06:30:00, 0.0,13.4
2023/06/07 06:40:00, 0.0,13.8
2023/06/07 06:50:00, 0.0,14.5
2023/06/07 07:00:00,---,17.5
2023/06/07 07:10:00, 1.5,19.2
2023/06/07 07:20:00, 1.1,19.9
2023/06/07 07:30:00, 0.6,19.9
2023/06/07 07:40:00, 0.0,20.9
2023/06/07 07:50:00, 0.0,20.3
2023/06/07 08:00:00, 0.0,20.1
2023/06/07 08:10:00, 0.0,19.9
2023/06/07 08:20:00, 0.0,20.6
2023/06/07 08:30:00, 0.0,21.0
2023/06/07 08:40:00, 0.0,21.8
2023/06/07 08:50:00, 0.0,23.2
2023/06/07 09:00:00, 0.0,22.3
2023/06/07 09:10:00, 0.0,23.7
2023/06/07 09:20:00, 0.0,22.8
2023/06/07 09:30:00, 0.0,24.0
2023/06/07 09:40:00, 0.0,24.2
2023/06/07 09:50:00, 0.0,22.8
2023/06/07 10:00:00, 0.0,23.4
2023/06/07 10:10:00, 0.0,23.7
2023/06/07 10:20:00, 0.0,23.3
2023/06/07 10:30:00, 0.0,23.5
2023/06/07 10:40:00, 0.0,24.0
2023/06/07 10:50:00, 0.0,24.0
2023/06/07 11:00:00, 0.0,24.0
2023/06/07 11:10:00, 0.0,24.3
2023/06/07 11:20:00, 0.0,24.2
2023/06/07 11:30:00, 0.0,24.5
2023/06/07 11:40:00, 0.0,25.1
2023/06/07 11:50:00, 0.0,24.3
2023/06/07 12:00:00, 0.0,25.9
2023/06/07 12:10:00, 0.0,25.6
2023/06/07 12:20:00, 0.0,24.7
2023/06/07 12:30:00, 0.0,25.1
2023/06/07 12:40:00, 0.0,25.9
2023/06/07 12:50:00, 0.0,24.9
2023/06/07 13:00:00, 0.0,26.2
2023/06/07 13:10:00, 0.0,27.4
2023/06/07 13:20:00, 0.0,26.3
2023/06/07 13:30:00, 0.0,26.1
2023/06/07 13:40:00, 0.0,27.5
2023/06/07 13:50:00, 0.0,27.1
2023/06/07 14:00:00, 0.0,27.6
2023/06/07 14:10:00, 0.0,26.6
2023/06/07 14:20:00, 0.0,26.8
2023/06/07 14:30:00, 0.0,26.9
2023/06/07 14:40:00, 0.0,26.9
2023/06/07 14:50:00, 0.0,26.5
2023/06/07 15:00:00, 0.0,24.9
2023/06/07 15:10:00, 0.0,25.1
2023/06/07 15:20:00, 0.0,25.6
2023/06/07 15:30:00, 0.0,26.0
2023/06/07 15:40:00, 0.0,26.5
2023/06/07 15:50:00, 0.0,28.3
2023/06/07 16:00:00, 0.0,29.9
2023/06/07 16:10:00, 0.0,27.6
2023/06/07 16:20:00, 0.0,28.1
2023/06/07 16:30:00, 0.0,27.6
2023/06/07 16:40:00, 0.0,26.9
2023/06/07 16:50:00, 0.0,26.0
2023/06/07 17:00:00, 0.0,27.9
2023/06/07 17:10:00, 0.0,26.8
2023/06/07 17:20:00, 0.0,28.8
2023/06/07 17:30:00, 0.0,29.6
2023/06/07 17:40:00, 0.0,26.9
2023/06/07 17:50:00, 0.0,23.8
2023/06/07 18:00:00, 0.0,21.3
2023/06/07 18:10:00, 0.0,20.5
2023/06/07 18:20:00, 0.0,20.2
2023/06/07 18:30:00, 0.1,19.2
2023/06/07 18:40:00, 0.1,18.7
2023/06/07 18:50:00, 0.1,18.4
2023/06/07 19:00:00, 0.1,18.3
2023/06/07 19:10:00, 0.2,17.8
2023/06/07 19:20:00, 0.2,17.6
2023/06/07 19:30:00, 0.2,17.0
2023/06/07 19:40:00, 0.3,16.5
2023/06/07 19:50:00, 0.2,16.6
2023/06/07 20:00:00, 0.4,16.3
2023/06/07 20:10:00, 0.4,16.1
2023/06/07 20:20:00, 0.5,16.1
2023/06/07 20:30:00, 0.6,15.9
2023/06/07 20:40:00, 0.6,16.0
2023/06/07 20:50:00, 0.6,16.1
2023/06/07 21:00:00, 0.6,16.1
2023/06/07 21:10:00, 0.5,16.2
2023/06/07 21:20:00, 0.5,16.3
2023/06/07 21:30:00, 0.5,16.1
2023/06/07 21:40:00, 0.5,16.2
2023/06/07 21:50:00, 0.5,16.0
2023/06/07 22:00:00, 0.6,16.0
2023/06/07 22:10:00, 0.6,16.1
2023/06/07 22:20:00, 0.6,16.0
2023/06/07 22:30:00, 0.6,16.2
2023/06/07 22:40:00, 0.5,15.8
2023/06/07 22:50:00, 0.5,16.1
2023/06/07 23:00:00, 0.4,16.1
2023/06/07 23:10:00, 0.4,16.0
2023/06/07 23:20:00, 0.4,16.1
2023/06/07 23:30:00, 0.4,15.9
2023/06/07 23:40:00, 0.4,15.9
2023/06/07 23:50:00, 0.4,16.7
